CZ-4 DEB, 26650

Orbit data source: Space-Track

CZ-4 DEB, 26650 is space debris in SSO originally from a launch on Thu, 14 Oct 1999 UTC launched from the Taiyaun Space Center, China (TSC). Debris objects in space refer to the collection of defunct objects orbiting the Earth. Examples of debris include non-operational satellites, rocket bodies, and fragments generated from explosions, collisions, or faulty payload assembly.

Not visible in the next 10 days
Identifier
26650, 1999-057LG
Orbit
SSO
Country
Flag of CNCN / PRC
Related business
Manufacturer
Unknown
Mission
Spacecraft
Bus & Motor
Unknown
Mass
Unknown
Launch date (UTC)
1999-10-14 (26 years ago)
Launch vehicle
Unknown
Launch site
Taiyaun Space Center, China (TSC)
Object type
Payload
Rocket body
Debris
Shape & HBR
Unknown shape, 0.1 m
Radar Cross Section
Small (<0.1 m²)

Expand to show TLE details & history
Last TLE update: 3 days ago

TLE from 3 days ago
0 CZ-4 DEB
1 26650U 99057LG  25344.52994979  .00157004  00000-0  27202-2 0  9993
2 26650  98.5577 359.6739 0001503 356.1330   3.9907 15.50322510370938
Epoch: 2025-12-10T12:43Z
TLE epoch observation values (Epoch: 2025-12-10T12:43:07.661Z)
Latitude
0.00004°
Longitude
89.39301°
Altitude
417.86 km
Speed
7.661 km/s
True Right ascension
23h 58m 41s
True Declination
0° 00' 00"
Sunlit
Object was in daylight at epoch
Visualization orbit readout
Latitude
Unknown
Longitude
Unknown
Altitude
Unknown
Speed
Unknown
Apparent Right ascension
Unknown
Apparent Declination
Unknown
Sunlit
N/A
Visualization observer readout
Local Sidereal Time
14:07:47
Azimuth
Unknown
Elevation
Unknown
Doppler factor
Unknown
Orbital elements
Apogee altitude
413.784 km
Perigee altitude
411.742 km
Semi-major axis
6,790.9 km
Eccentricity
0.00015
Inclination
98.5577°
RAAN
359.6739°
Arg. of periapsis
356.133°
True anomaly
3.9919°
Mean anomaly
3.9907°
Eccentric anomaly
3.9913°
Mean motion
3.8784 °/min
Orbital period
92.82 mins
BSTAR
0.0027202
Loading maneuver chart data...
Computing Atmospheric mass density...

Documentation

Showing up to 5 results
|